Zurück zum Katalog

KUIPER-00126

AktivKommunikationLEO
NORAD 65955·PAYLOAD·🇺🇸 United States

Gestartet Oct 14, 2025 von Cape Canaveral Space Force Station

Loading…

Nächste Überflüge (nächste 24 Stunden)

TLE

AktuellSource: CelesTrak SupGP

Epoche: Sep 14, 2026, 23:12 UTC

1 65955C 25228J   26257.96689815  .00001028  00000+0  13452-3 0  2578
2 65955  51.8976 243.6010 0000668  68.5831  33.7660 14.79930208    14

Verfolge KUIPER-00126 in Echtzeit mit AllMySat

Download on the App Store